This demonstration page uses our WeatherBlox Daily Observations layout. Learn more.

Hourly Observations for January 13, 2020

Temp ( °F °C ) Dew Point ( °F °C ) Humidity (%) Winds ( mph kmh ) Pressure ( in mb ) Visibility ( mi km ) Precip ( " mm )
12:15 am 00:15 Clear 24 -4.6 23 -5.1 96 96 S 8 13 30.13 1020 10 16.0934 0 0
12:35 am 00:35 Clear 24 -4.5 23 -5.1 96 96 S 6 9 30.12 1020 10 16.0934 0 0
12:55 am 00:55 Clear 23 -5 22 -5.6 96 96 S 7 11 30.11 1020 10 16.0934 0 0
1:15 am 01:15 Clear 23 -5.1 22 -5.5 97 97 S 6 9 30.11 1020 10 16.0934 0 0
1:35 am 01:35 Clear 24 -4.6 23 -5 97 97 S 7 11 30.11 1020 10 16.0934 0 0
1:55 am 01:55 Clear 24 -4.3 23 -5 95 95 S 6 9 30.11 1020 10 16.0934 0 0
2:15 am 02:15 Clear 24 -4.2 23 -5.2 93 93 S 5 7 30.11 1019 10 16.0934 0 0
2:35 am 02:35 Clear 24 -4.5 22 -5.5 93 93 S 5 7 30.11 1020 10 16.0934 0 0
2:55 am 02:55 Mostly Cloudy 24 -4.2 22 -5.4 91 91 S 5 7 30.11 1019 10 16.0934 0 0
3:15 am 03:15 Mostly Cloudy 23 -5.1 21 -6 93 93 S 5 7 30.11 1020 10 16.0934 0 0
3:35 am 03:35 Partly Cloudy 22 -5.4 21 -6.2 94 94 S 6 9 30.12 1020 10 16.0934 0 0
3:55 am 03:55 Mostly Cloudy 21 -6 20 -6.7 95 95 SSE 5 7 30.12 1020 10 16.0934 0 0
4:15 am 04:15 Mostly Cloudy 23 -5.1 21 -6.1 93 93 SSE 6 9 30.09 1019 10 16.0934 0 0
4:35 am 04:35 Partly Cloudy 21 -5.9 20 -6.9 93 93 SE 8 13 30.1 1019 10 16.0934 0 0
4:55 am 04:55 Clear 21 -6.3 19 -7 95 95 SE 9 15 30.09 1019 10 16.0934 0 0
5:15 am 05:15 Clear 20 -6.4 19 -7 96 96 ESE 5 7 30.09 1019 10 16.0934 0 0
5:35 am 05:35 Clear 20 -6.4 20 -6.9 96 96 SE 5 7 30.09 1019 10 16.0934 0 0
5:55 am 05:55 Clear 19 -7.1 18 -7.6 96 96 SE 8 13 30.1 1019 10 16.0934 0 0
6:15 am 06:15 Clear 18 -7.7 17 -8.2 96 96 ESE 6 9 30.1 1019 10 16.0934 0 0
6:35 am 06:35 Clear 19 -7 19 -7.3 98 98 ESE 13 20 30.07 1018 10 16.0934 0 0
6:55 am 06:55 Clear 21 -6.2 20 -6.7 96 96 SE 12 19 30.07 1018 10 16.0934 0 0
7:15 am 07:15 Clear 22 -5.5 21 -6.2 95 95 SE 10 17 30.06 1018 10 16.0934 0 0
7:35 am 07:35 Clear 23 -5.1 21 -5.9 94 94 SE 13 20 30.04 1017 10 16.0934 0 0
7:55 am 07:55 Clear 24 -4.7 22 -5.5 94 94 SSE 12 19 30.04 1017 10 16.0934 0 0
8:15 am 08:15 Sunny 23 -5 22 -5.6 96 96 SSE 10 17 30.04 1017 10 16.0934 0 0
8:35 am 08:35 Sunny 23 -5 22 -5.5 96 96 SSE 7 11 30.04 1017 10 16.0934 0 0
8:55 am 08:55 Sunny 24 -4.6 23 -5.1 96 96 SSE 7 11 30.04 1017 10 16.0934 0 0
9:15 am 09:15 Sunny 24 -4.5 23 -5 96 96 SSE 6 9 30.05 1018 10 16.0934 0 0
9:35 am 09:35 Sunny 25 -4 24 -4.5 96 96 SSE 6 9 30.05 1018 10 16.0934 0 0
9:55 am 09:55 Sunny 26 -3.5 25 -4 96 96 SSE 8 13 30.04 1017 10 16.0934 0 0
10:15 am 10:15 Sunny 27 -3 26 -3.5 96 96 S 3 6 30.04 1017 10 16.0934 0 0
10:35 am 10:35 Sunny 27 -2.7 26 -3.5 94 94 S 6 9 30.04 1017 10 16.0934 0 0
10:55 am 10:55 Sunny 28 -2.2 26 -3.1 94 94 S 6 9 30.04 1017 10 16.0934 0 0
11:15 am 11:15 Partly Cloudy 29 -1.6 27 -2.8 92 92 SSW 3 6 30.02 1017 10 16.0934 0 0
11:35 am 11:35 Sunny 29 -1.5 27 -3 90 90 S 5 7 30.02 1017 10 16.0934 0 0
11:55 am 11:55 Sunny 30 -1 28 -2.5 90 90 Calm 29.99 1016 10 16.0934 0 0
12:15 pm 12:15 Sunny 31 -0.8 27 -2.7 87 87 SSE 3 6 29.98 1015 10 16.0934 0 0
12:35 pm 12:35 Sunny 32 -0.2 28 -2.2 87 87 SSE 5 7 29.96 1014 10 16.0934 0 0
12:55 pm 12:55 Sunny 32 -0.2 28 -2.1 87 87 SE 7 11 29.95 1014 10 16.0934 0 0
1:15 pm 13:15 Sunny 33 0.3 29 -1.9 85 85 SSE 3 6 29.93 1014 10 16.0934 0 0
1:35 pm 13:35 Sunny 33 0.5 28 -2 84 84 Calm 29.92 1013 10 16.0934 0 0
1:55 pm 13:55 Sunny 34 1 29 -1.8 82 82 Calm 29.91 1013 10 16.0934 0 0
2:15 pm 14:15 Sunny 34 1 28 -2 81 81 Calm 29.91 1013 10 16.0934 0 0
2:35 pm 14:35 Sunny 34 1.2 29 -1.8 81 81 Calm 29.9 1013 10 16.0934 0 0
2:55 pm 14:55 Sunny 34 1.2 29 -1.9 80 80 Calm 29.9 1013 10 16.0934 0 0
3:15 pm 15:15 Sunny 35 1.7 29 -1.8 78 78 Calm 29.9 1012 10 16.0934 0 0
3:35 pm 15:35 Sunny 36 2 29 -1.7 77 77 SE 5 7 29.91 1013 10 16.0934 0 0
3:55 pm 15:55 Sunny 36 2 29 -1.7 77 77 ESE 3 6 29.91 1013 10 16.0934 0 0
4:15 pm 16:15 Sunny 36 2 28 -2 75 75 S 3 6 29.92 1013 10 16.0934 0 0
4:35 pm 16:35 Sunny 36 2 28 -2 75 75 S 5 7 29.94 1014 10 16.0934 0 0
4:55 pm 16:55 Sunny 35 1.7 28 -2 77 77 S 3 6 29.95 1014 10 16.0934 0 0
5:15 pm 17:15 Sunny 34 1.1 28 -2 80 80 S 6 9 29.96 1015 10 16.0934 0 0
5:35 pm 17:35 Clear 33 0.5 28 -2.5 81 81 SSW 6 9 29.96 1015 10 16.0934 0 0
5:55 pm 17:55 Clear 31 -0.5 27 -2.9 84 84 SSW 6 9 29.99 1016 10 16.0934 0 0
6:15 pm 18:15 Clear 30 -1.3 26 -3.2 87 87 SSW 5 7 30.01 1016 10 16.0934 0 0
6:35 pm 18:35 Clear 28 -2.1 26 -3.6 90 90 SW 5 7 30.02 1017 10 16.0934 0 0
6:55 pm 18:55 Clear 29 -1.6 26 -3.5 87 87 SSW 7 11 30.02 1017 10 16.0934 0 0
7:15 pm 19:15 Clear 29 -1.8 25 -3.9 86 86 SSW 5 7 30.03 1017 10 16.0934 0 0
7:35 pm 19:35 Clear 28 -2.1 25 -4 87 87 SW 3 6 30.04 1017 10 16.0934 0 0
7:55 pm 19:55 Clear 27 -2.6 25 -4.1 90 90 SSW 6 9 30.05 1018 10 16.0934 0 0
8:15 pm 20:15 Clear 27 -3 24 -4.6 89 89 Calm 30.05 1018 10 16.0934 0 0
8:35 pm 20:35 Clear 28 -2 26 -3.6 89 89 SW 3 6 30.04 1017 10 16.0934 0 0
8:55 pm 20:55 Clear 28 -2.5 25 -3.9 90 90 Calm 30.05 1018 10 16.0934 0 0
9:15 pm 21:15 Clear 26 -3.2 25 -4.1 94 94 SSW 3 6 30.06 1018 10 16.0934 0 0
9:35 pm 21:35 Clear 27 -3 25 -4.1 92 92 SW 3 6 30.06 1018 10 16.0934 0 0
9:55 pm 21:55 Clear 27 -2.9 25 -3.7 94 94 SW 3 6 30.07 1018 10 16.0934 0 0
10:15 pm 22:15 Clear 28 -2.2 26 -3.6 90 90 SW 5 7 30.07 1018 10 16.0934 0 0
10:35 pm 22:35 Clear 27 -3 24 -4.6 89 89 WSW 5 7 30.08 1019 10 16.0934 0 0
10:55 pm 22:55 Clear 30 -1.1 25 -3.7 83 83 W 5 7 30.08 1018 10 16.0934 0 0
11:15 pm 23:15 Clear 29 -1.9 24 -4.2 84 84 WSW 5 7 30.08 1019 10 16.0934 0 0
11:35 pm 23:35 Clear 28 -2 24 -4.4 84 84 NW 5 7 30.09 1019 10 16.0934 0 0
11:55 pm 23:55 Clear 26 -3.5 23 -4.9 90 90 W 8 13 30.12 1020 10 16.0934 0 0

Powered by AerisWeather